Weather History for Natchez, MS

Change the Weather History Date:

Tuesday, October 2, 2012

  Actual Average Record
Temperature  
Mean Temperature 63 °F -  
Max Temperature 73 °F 84 °F 92 °F (1952)
Min Temperature 53 °F 58 °F 42 °F (1939)
Degree Days  
Heating Degree Days 2    
Growing Degree Days 13 (Base 50)    
Moisture  
Dew Point 52 °F    
Average Humidity 70    
Maximum Humidity 88    
Minimum Humidity 41    
Precipitation  
Precipitation 0.00 in - - ()
Sea Level Pressure  
Sea Level Pressure 29.88 in    
Wind  
Wind Speed 1 mph (NNW)    
Max Wind Speed 8 mph    
Max Gust Speed -    
Visibility 8 miles    
Events      
Averages and records for this station are not official NWS values.
T = Trace of Precipitation, MM = Missing Value Source: NWS Daily Summary

Daily Weather History Graph

Daily Weather History Graph

Search for Another Location

Airport:

Trip Planner

Search our weather history database for the weather conditions in past years. The results will help you decide how hot, cold, wet, or windy it might be!

Date:

Astronomy

Oct. 02, 2012 Rise Set
Actual Time 6:59 AM CDT 6:48 PM CDT
Civil Twilight 6:35 AM CDT 7:12 PM CDT
Nautical Twilight 6:07 AM CDT 7:40 PM CDT
Astronomical Twilight 5:39 AM CDT 8:08 PM CDT
Moon 8:14 PM CDT (10/2) 9:15 AM CDT (10/2)
Length of Visible Light 12h 36m
Length of Day
11h 48m
Waning Gibbous, 94% of the Moon is Illuminated
Oct 2
Waning Gibbous
Oct 8
Last Quarter
Oct 15
New
Oct 21
First Quarter
Oct 29
Full

Hourly Weather History & Observations

Time (CDT) Temp. Dew Point Humidity Pressure Visibility Wind Dir Wind Speed Gust Speed Precip Events Conditions
12:15 AM 59.0 °F 53.6 °F 82% 29.77 in 3.0 mi Calm Calm - N/A   Overcast
12:35 AM 59.0 °F 53.6 °F 82% 29.77 in 8.0 mi Calm Calm - N/A   Overcast
12:55 AM 57.2 °F 53.6 °F 88% 29.77 in 1.8 mi Calm Calm - N/A   Mostly Cloudy
1:15 AM 57.2 °F 53.6 °F 88% 29.77 in 0.8 mi Calm Calm - N/A   Mostly Cloudy
1:35 AM 57.2 °F 53.6 °F 88% 29.77 in 1.8 mi SSE 3.5 mph - N/A   Overcast
1:55 AM 57.2 °F 53.6 °F 88% 29.78 in 4.0 mi Calm Calm - N/A   Mostly Cloudy
2:15 AM 57.2 °F 53.6 °F 88% 29.78 in 5.0 mi Calm Calm - N/A   Mostly Cloudy
2:35 AM 59.0 °F 53.6 °F 82% 29.78 in 10.0 mi Calm Calm - N/A   Mostly Cloudy
2:55 AM 59.0 °F 53.6 °F 82% 29.79 in 10.0 mi Calm Calm - N/A   Partly Cloudy
3:15 AM 57.2 °F 53.6 °F 88% 29.79 in 10.0 mi Calm Calm - N/A   Clear
3:35 AM 57.2 °F 53.6 °F 88% 29.79 in 6.0 mi South 3.5 mph - N/A   Clear
4:15 AM 57.2 °F 51.8 °F 82% 29.79 in 2.5 mi Calm Calm - N/A   Clear
4:35 AM 57.2 °F 51.8 °F 82% 29.80 in 1.2 mi Calm Calm - N/A   Clear
4:55 AM 55.4 °F 51.8 °F 88% 29.80 in 1.0 mi Calm Calm - N/A   Clear
5:15 AM 55.4 °F 50.0 °F 82% 29.81 in 0.5 mi South 4.6 mph - N/A   Unknown
5:35 AM 55.4 °F 48.2 °F 77% 29.82 in 0.2 mi Calm Calm - N/A   Mostly Cloudy
5:55 AM 55.4 °F 48.2 °F 77% 29.82 in 1.2 mi Calm Calm - N/A   Scattered Clouds
6:15 AM 55.4 °F 48.2 °F 77% 29.82 in 2.0 mi Calm Calm - N/A   Clear
6:35 AM 53.6 °F 48.2 °F 82% 29.83 in 0.5 mi Calm Calm - N/A   Mostly Cloudy
7:15 AM 53.6 °F 48.2 °F 82% 29.84 in 0.2 mi Calm Calm - N/A   Overcast
7:35 AM 53.6 °F 48.2 °F 82% 29.86 in 0.2 mi Calm Calm - N/A   Overcast
7:55 AM 55.4 °F 48.2 °F 77% 29.86 in 0.5 mi Calm Calm - N/A   Overcast
8:15 AM 55.4 °F 51.8 °F 88% 29.87 in 0.5 mi Calm Calm - N/A   Overcast
8:35 AM 57.2 °F 53.6 °F 88% 29.88 in 1.8 mi SSE 3.5 mph - N/A   Mostly Cloudy
8:55 AM 59.0 °F 53.6 °F 82% 29.89 in 10.0 mi Calm Calm - N/A   Partly Cloudy
9:15 AM 60.8 °F 55.4 °F 82% 29.89 in 10.0 mi Calm Calm - N/A   Clear
9:35 AM 62.6 °F 55.4 °F 77% 29.90 in 10.0 mi North 3.5 mph - N/A   Clear
9:55 AM 62.6 °F 55.4 °F 77% 29.91 in 10.0 mi NE 3.5 mph - N/A   Clear
10:15 AM 64.4 °F 55.4 °F 73% 29.91 in 10.0 mi Calm Calm - N/A   Clear
10:35 AM 66.2 °F 55.4 °F 68% 29.91 in 10.0 mi Calm Calm - N/A   Clear
10:55 AM 66.2 °F 55.4 °F 68% 29.91 in 10.0 mi North 3.5 mph - N/A   Clear
11:15 AM 68.0 °F 55.4 °F 64% 29.92 in 10.0 mi Calm Calm - N/A   Clear
11:35 AM 69.8 °F 55.4 °F 60% 29.92 in 10.0 mi Calm Calm - N/A   Partly Cloudy
11:55 AM 71.6 °F 53.6 °F 53% 29.92 in 10.0 mi NNW 5.8 mph - N/A   Mostly Cloudy
12:15 PM 71.6 °F 51.8 °F 50% 29.91 in 10.0 mi NNW 8.1 mph - N/A   Partly Cloudy
12:35 PM 71.6 °F 50.0 °F 46% 29.91 in 10.0 mi NNW 4.6 mph - N/A   Clear
12:55 PM 71.6 °F 51.8 °F 50% 29.91 in 10.0 mi West 6.9 mph - N/A   Clear
1:15 PM 71.6 °F 51.8 °F 50% 29.90 in 10.0 mi NNW 5.8 mph - N/A   Clear
1:35 PM 71.6 °F 51.8 °F 50% 29.90 in 10.0 mi WNW 3.5 mph - N/A   Clear
1:55 PM 71.6 °F 51.8 °F 50% 29.89 in 10.0 mi NNW 4.6 mph - N/A   Scattered Clouds
2:15 PM 73.4 °F 48.2 °F 41% 29.89 in 10.0 mi NNE 3.5 mph - N/A   Partly Cloudy
2:35 PM 73.4 °F 51.8 °F 47% 29.88 in 10.0 mi NNW 4.6 mph - N/A   Partly Cloudy
3:15 PM 73.4 °F 50.0 °F 44% 29.88 in 10.0 mi WNW 5.8 mph - N/A   Clear
3:35 PM 73.4 °F 50.0 °F 44% 29.88 in 10.0 mi WNW 6.9 mph - N/A   Partly Cloudy
3:55 PM 73.4 °F 48.2 °F 41% 29.89 in 10.0 mi NNW 3.5 mph - N/A   Partly Cloudy
4:15 PM 73.4 °F 51.8 °F 47% 29.89 in 10.0 mi West 3.5 mph - N/A   Clear
4:35 PM 73.4 °F 48.2 °F 41% 29.89 in 10.0 mi West 4.6 mph - N/A   Partly Cloudy
4:55 PM 73.4 °F 50.0 °F 44% 29.89 in 10.0 mi North 6.9 mph - N/A   Partly Cloudy
5:15 PM 73.4 °F 50.0 °F 44% 29.89 in 10.0 mi NNW 4.6 mph - N/A   Clear
5:35 PM 73.4 °F 48.2 °F 41% 29.89 in 10.0 mi Calm Calm - N/A   Clear
5:55 PM 71.6 °F 51.8 °F 50% 29.90 in 10.0 mi NNE 3.5 mph - N/A   Clear
6:15 PM 69.8 °F 55.4 °F 60% 29.90 in 10.0 mi Calm Calm - N/A   Clear
6:35 PM 68.0 °F 55.4 °F 64% 29.91 in 10.0 mi Calm Calm - N/A   Clear
6:55 PM 64.4 °F 55.4 °F 73% 29.90 in 10.0 mi Calm Calm - N/A   Clear
7:15 PM 64.4 °F 53.6 °F 68% 29.91 in 10.0 mi Calm Calm - N/A   Clear
7:35 PM 62.6 °F 53.6 °F 72% 29.91 in 10.0 mi Calm Calm - N/A   Clear
8:15 PM 62.6 °F 55.4 °F 77% 29.93 in 10.0 mi Calm Calm - N/A   Clear
8:35 PM 60.8 °F 53.6 °F 77% 29.94 in 10.0 mi Calm Calm - N/A   Clear
8:55 PM 60.8 °F 53.6 °F 77% 29.94 in 10.0 mi Calm Calm - N/A   Clear
9:15 PM 60.8 °F 53.6 °F 77% 29.95 in 10.0 mi Calm Calm - N/A   Clear
9:55 PM 60.8 °F 53.6 °F 77% 29.96 in 10.0 mi Calm Calm - N/A   Partly Cloudy
10:15 PM 59.0 °F 51.8 °F 77% 29.97 in 10.0 mi Calm Calm - N/A   Partly Cloudy
10:35 PM 59.0 °F 53.6 °F 82% 29.97 in 10.0 mi Calm Calm - N/A   Partly Cloudy
10:55 PM 59.0 °F 53.6 °F 82% 29.97 in 10.0 mi SSE 3.5 mph - N/A   Clear
11:15 PM 59.0 °F 53.6 °F 82% 29.97 in 10.0 mi Calm Calm - N/A   Scattered Clouds
11:35 PM 59.0 °F 51.8 °F 77% 29.97 in 10.0 mi Calm Calm - N/A   Scattered Clouds
11:55 PM 59.0 °F 51.8 °F 77% 29.98 in 10.0 mi Calm Calm - N/A   Scattered Clouds